TimeCST,TemperatureF,Dew PointF,Humidity,Sea Level PressureIn,VisibilityMPH,Wind Direction,Wind SpeedMPH,Gust SpeedMPH,PrecipitationIn,Events,Conditions,WindDirDegrees,DateUTC
12:53 AM,41.0,25.0,53,30.25,10.0,SE,4.6,-,N/A,,Clear,130,2012-12-14 06:53:00
1:53 AM,39.9,25.0,55,30.24,10.0,ESE,4.6,-,N/A,,Clear,120,2012-12-14 07:53:00
2:53 AM,39.0,25.0,57,30.23,10.0,ESE,5.8,-,N/A,,Clear,120,2012-12-14 08:53:00
3:53 AM,36.0,26.1,67,30.23,10.0,Calm,Calm,-,N/A,,Clear,0,2012-12-14 09:53:00
4:53 AM,30.9,27.0,85,30.22,10.0,ESE,3.5,-,N/A,,Clear,110,2012-12-14 10:53:00
5:53 AM,32.0,27.0,82,30.23,10.0,Calm,Calm,-,N/A,,Clear,0,2012-12-14 11:53:00
6:53 AM,33.1,27.0,78,30.25,10.0,Calm,Calm,-,N/A,,Clear,0,2012-12-14 12:53:00
7:53 AM,39.9,28.0,63,30.25,10.0,South,4.6,-,N/A,,Clear,190,2012-12-14 13:53:00
8:53 AM,45.0,28.9,53,30.25,10.0,South,6.9,-,N/A,,Clear,180,2012-12-14 14:53:00
9:53 AM,48.9,28.0,44,30.25,10.0,South,8.1,-,N/A,,Clear,170,2012-12-14 15:53:00
10:01 AM,50.0,28.4,43,30.23,10.0,SSE,8.1,-,N/A,,Partly Cloudy,150,2012-12-14 16:01:00
10:53 AM,53.1,28.0,38,30.23,10.0,South,8.1,-,N/A,,Mostly Cloudy,180,2012-12-14 16:53:00
11:53 AM,55.0,28.9,37,30.21,10.0,SSE,9.2,-,N/A,,Overcast,160,2012-12-14 17:53:00
12:53 PM,55.0,30.9,40,30.14,10.0,East,4.6,-,N/A,,Overcast,100,2012-12-14 18:53:00
1:25 PM,55.4,30.2,38,30.12,10.0,East,4.6,-,N/A,,Overcast,80,2012-12-14 19:25:00
1:53 PM,57.0,33.1,40,30.10,10.0,ESE,3.5,-,N/A,,Overcast,120,2012-12-14 19:53:00
2:53 PM,57.9,33.1,39,30.06,10.0,ESE,4.6,-,N/A,,Overcast,120,2012-12-14 20:53:00
3:53 PM,57.9,30.9,36,30.04,10.0,SE,5.8,-,N/A,,Overcast,140,2012-12-14 21:53:00
4:10 PM,57.2,30.2,36,30.04,10.0,SE,9.2,-,N/A,,Overcast,140,2012-12-14 22:10:00
4:53 PM,53.1,37.0,55,30.06,10.0,ESE,3.5,-,0.00,,Overcast,110,2012-12-14 22:53:00
5:53 PM,52.0,39.0,61,30.03,10.0,ESE,6.9,-,0.00,Rain,Light Rain,110,2012-12-14 23:53:00
6:53 PM,52.0,41.0,66,30.01,10.0,SE,8.1,-,0.00,Rain,Light Rain,130,2012-12-15 00:53:00
7:20 PM,51.8,41.0,67,30.01,10.0,ESE,6.9,-,0.00,,Overcast,110,2012-12-15 01:20:00
7:53 PM,52.0,41.0,66,30.01,10.0,Variable,5.8,-,0.00,,Overcast,0,2012-12-15 01:53:00
8:53 PM,53.1,42.1,66,29.99,10.0,SE,8.1,-,0.00,,Overcast,130,2012-12-15 02:53:00
9:53 PM,52.0,46.9,83,29.97,6.0,SE,5.8,-,0.01,Rain,Light Rain,140,2012-12-15 03:53:00
10:53 PM,53.1,48.9,86,29.96,4.0,SSE,8.1,17.3,0.01,Rain,Light Rain,160,2012-12-15 04:53:00
11:24 PM,53.6,48.2,82,29.94,7.0,SSE,13.8,-,0.00,Rain,Light Rain,160,2012-12-15 05:24:00
11:53 PM,53.1,50.0,89,29.92,10.0,South,11.5,-,0.00,,Mostly Cloudy,170,2012-12-15 05:53:00